Location: *
(42.7667°S, 179.3500°W)
Time: 04:34:59
(UTC+00:00)

Daily predictions for brighter satellites

Satellite Brightness Start Highest point End
(mag) Time Altitude Azimuth Time Altitude Azimuth Time Altitude Azimuth
Nadezhda 1 Rocket 4.5 06:57:00 10° S 07:02:50 41° ESE 07:08:33 10° NE
Cosmos 841 Rocket 4.2 07:00:01 10° S 07:04:53 36° ESE 07:09:44 10° NE
COSMOS 2428 3.6 06:59:46 10° S 07:05:00 34° SE 07:10:11 10° ENE
Cosmos 1939 Rocket 3.0 07:00:53 10° SSE 07:05:09 87° ENE 07:09:19 10° NNW
Cosmos 1346 Rocket 4.0 07:02:33 10° NE 07:05:45 23° E 07:08:59 10° SE
CZ-4 R/B 4.5 07:02:09 10° SSE 07:06:21 64° ENE 07:10:29 10° N
Cosmos 2333 Rocket 2.8 07:00:59 10° SSW 07:06:33 44° ESE 07:12:03 10° NE
Cosmos 2084 Rocket 4.4 07:03:18 10° SSW 07:07:17 34° SE 07:11:09 10° ENE
Okean-O 2.9 07:03:56 10° SSE 07:08:19 48° E 07:12:39 10° N
ATLAS CENTAUR R/B 3.6 07:04:30 10° WNW 07:08:41 35° SW 07:13:06 10° SSE
Cosmos 1741 Rocket 4.0 07:03:40 10° NNW 07:08:55 77° ENE 07:14:14 10° SSE
Cosmos 972 Rocket 4.3 07:04:21 10° SSW 07:09:27 70° WNW 07:14:19 10° N
Helios 1A Rocket 3.1 07:06:01 10° SSE 07:10:11 56° E 07:14:17 10° N
Cosmos 1825 3.6 07:10:01 10° NE 07:12:51 20° E 07:15:45 10° SE
Cosmos 921 Rocket 3.0 07:09:00 10° SSW 07:13:17 86° WNW 07:17:28 10° NNE
USA 229 DEB 4.1 07:07:23 10° N 07:14:44 49° ENE 07:21:48 10° SE
USA 229 4.1 07:07:30 10° N 07:14:49 48° ENE 07:21:53 10° SE
Cosmos 2237 Rocket 3.9 07:11:29 10° S 07:15:25 18° SE 07:19:19 10° E
IRS-1C Rocket 4.1 07:11:02 10° SSE 07:16:24 83° ENE 07:21:42 10° NNW
Cosmos 1076 Rocket 4.4 07:13:10 10° NNE 07:16:59 30° E 07:20:52 10° SSE
SL-08 R/B 4.5 07:14:50 10° N 07:20:58 81° E 07:27:14 10° S
ISS -1.3 07:18:46 10° SW 07:21:17 18° S 07:23:47 10° SE
Cosmos 2360 Rocket 2.8 07:18:11 10° SSW 07:23:49 60° WNW 07:29:24 10° N
Cosmos 1745 Rocket 4.1 07:17:36 10° N 07:23:53 62° E 07:30:12 10° SSE
Cosmos 1850 Rocket 4.3 07:19:11 10° NNW 07:24:32 75° WSW 07:29:56 10° SSE
USA 267 3.3 07:18:11 10° SE 07:24:49 72° NE 07:31:23 10° NW
Cosmos 1340 2.6 07:21:41 10° N 07:25:30 84° E 07:29:22 10° SSE
SL-24 DEB 4.4 07:20:55 10° NNE 07:25:38 59° E 07:30:24 10° S
USA 281 3.2 07:19:10 10° SSE 07:25:51 84° ENE 07:32:27 10° NNW
Cosmos 1607 4.1 07:20:43 10° SW 07:26:50 77° WNW 07:32:54 10° NNE
CZ-4 R/B 1.4 07:24:04 10° SSE 07:28:21 81° E 07:32:29 10° N
H-2A R/B 4.4 07:25:46 12° NE 07:29:02 30° ESE 07:32:44 10° S
NOSS 3-1 (A) 4.3 07:21:06 10° N 07:29:36 51° ENE 07:37:13 10° SE
COSMOS 2487 3.7 07:29:10 10° NW 07:32:30 46° WSW 07:35:54 10° S
Cosmos 1386 Rocket 4.4 07:31:59 10° N 07:38:09 75° E 07:44:16 10° S
CSL-04 Debris 4.3 07:34:01 10° SSE 07:39:22 53° E 07:44:38 10° N
Meteor 2-2 Rocket 4.3 07:33:52 10° S 07:39:41 87° ESE 07:45:34 10° N
SJ-11-01 4.4 07:35:56 10° SSE 07:40:39 57° E 07:45:18 10° N
SL-16 R/B 4.3 07:38:55 10° SSE 07:41:07 12° SE 07:43:18 10° ESE
Cosmos 2227 Rocket 3.5 07:43:13 16° ENE 07:44:52 19° E 07:48:40 10° ESE
NOSS 3-1 (C) 4.2 07:39:01 10° NNW 07:47:55 89° NE 07:55:46 10° SE
Cosmos 2219 Rocket 2.2 07:44:57 10° SSW 07:50:42 84° ESE 07:55:28 15° NNE
USA 186 2.8 07:48:16 10° SE 07:51:10 27° E 07:51:42 25° ENE
Cosmos 724 4.4 07:45:24 10° SSW 07:51:16 65° SE 07:55:20 20° NE
Cosmos 1606 3.9 07:48:32 10° SSE 07:51:45 24° ESE 07:52:50 21° E
Cosmos 1709 Rocket 4.1 07:47:33 10° N 07:53:45 59° E 07:59:56 10° SSE
USA 234 3.7 07:53:29 16° ENE 07:58:40 54° SSE 08:05:05 10° SW
CZ-2C R/B 3.6 07:55:10 10° S 08:00:39 70° WSW 08:06:20 10° NNW
NOSS 0 Rocket 4.1 07:58:02 10° SSW 08:04:11 59° ESE 08:07:59 24° NE
Cosmos 2151 3.2 08:04:24 22° NNE 08:06:51 49° E 08:11:02 10° SSE
Cosmos 389 Rocket 3.8 08:05:09 10° SSE 08:08:12 24° ESE 08:08:27 24° E
Resurs 01 Rocket 3.9 08:07:45 10° ESE 08:08:03 11° ESE 08:08:03 11° ESE
OBJECT-B 2.8 08:09:47 10° SE 08:11:02 17° ESE 08:11:02 17° ESE
YAOGAN 1 4.1 08:11:09 10° S 08:15:16 39° WSW 08:19:19 10° NW
Cosmos 1814 Rocket 4.2 08:10:03 10° SSW 08:15:17 73° WNW 08:18:57 20° N
Cosmos 2181 Rocket 4.1 08:11:03 10° S 08:17:12 59° E 08:20:43 26° NNE
Cosmos 2058 4.3 08:13:30 10° NNW 08:17:27 40° WSW 08:21:29 10° S
Intercosmos 24 Rocket 4.2 08:15:54 10° S 08:20:18 84° E 08:21:45 36° NNE
ARGOS 3.1 08:16:54 10° SSE 08:22:22 88° WSW 08:27:47 10° NNW
SL-8 R/B 4.1 08:18:15 10° NNW 08:22:43 38° NE 08:23:16 37° NE
Cosmos 2297 Rocket 2.4 08:20:06 17° N 08:24:17 48° ENE 08:29:45 10° SE
Timation 2 Rocket 4.1 08:17:40 10° NNW 08:24:28 69° ENE 08:31:07 10° SSE
X-37B 2.0 08:25:18 10° NW 08:27:04 28° NNW 08:27:04 28° NNW
Cosmos 968 Rocket 3.4 08:26:44 19° N 08:30:17 62° ENE 08:35:24 10° SSE
H-2A R/B 3.1 08:31:35 10° S 08:36:27 46° WSW 08:41:24 10° NW
Cosmos 1900 4.2 08:33:31 10° SSW 08:38:25 76° ESE 08:39:45 48° NE
Ariane Rocket 2.9 08:34:14 10° SSE 08:39:22 65° ENE 08:41:24 36° N
Lacrosse 5 rocket 4.0 08:39:29 10° SSW 08:41:48 14° S 08:44:03 10° SE
SL-08 RB Rocket 4.1 08:40:43 10° S 08:45:19 62° WSW 08:49:00 15° NNW
Cosmos 1825 4.3 08:44:57 10° NW 08:48:11 26° WSW 08:51:28 10° SSW
Meteor 2-3 Rocket 3.8 08:46:37 38° NNE 08:48:50 66° E 08:54:38 10° SSE
Cosmos 1486 Rocket 4.0 08:44:09 13° NNW 08:48:57 86° WSW 08:54:16 10° SSE
COSMOS 2428 3.9 08:44:02 10° SW 08:49:17 38° WNW 08:52:46 19° NNW
Cosmos 2333 Rocket 3.8 08:45:40 10° SW 08:50:35 29° WNW 08:54:47 13° NNW
Cosmos 2219 3.1 08:48:12 10° NNW 08:53:56 89° ENE 08:59:41 10° SSE
SJ-6B 2.9 08:50:38 10° S 08:54:29 72° WSW 08:55:08 57° NW
Resurs 1-3 3.8 08:51:37 10° SSE 08:55:35 53° ESE 08:55:35 53° ESE
Cosmos 1503 Rocket 4.0 08:57:42 53° NNE 08:58:47 66° ENE 09:04:11 10° SSE
ISS -2.3 08:55:40 10° SW 08:58:41 32° SSE 08:58:41 32° SSE
Cosmos 2237 Rocket 2.2 08:54:26 10° SSW 09:00:12 82° WNW 09:01:45 50° NNE
Cosmos 1633 3.3 09:01:51 48° SSE 09:01:51 48° SSE 09:04:36 10° S
SAR-Lupe-2 4.1 09:02:15 53° SSE 09:02:15 53° SSE 09:05:12 10° S
SeaSat 1 3.8 08:57:36 10° SE 09:00:08 25° ESE 09:00:08 25° ESE
Cosmos 2082 4.1 09:03:43 43° E 09:03:43 43° E 09:08:29 10° SE
JB-3 4.3 09:03:22 84° SSE 09:03:22 84° SSE 09:07:26 10° SSW
USA 267 4.4 09:01:23 10° SE 09:07:33 43° SSW 09:13:42 10° W
IRS-1A Rocket 4.4 09:02:44 10° SSE 09:08:43 78° WSW 09:12:02 28° NNW
Okean 3 Rocket 4.1 09:07:49 40° NW 09:09:11 59° W 09:13:43 10° S
Cosmos 1354 Rocket 3.9 09:09:30 66° NNE 09:10:02 72° ENE 09:15:26 10° SSE
Cosmos 1980 3.9 09:05:23 10° SSW 09:11:02 63° WNW 09:12:25 47° NNW
Cosmos 1867 4.2 09:06:04 10° SSW 09:11:14 42° SE 09:11:58 40° ESE
Cosmos 1766 Rocket 4.1 09:13:08 44° NW 09:14:10 56° W 09:18:35 10° S
MOS 1 4.4 09:10:45 10° S 09:16:32 74° WSW 09:19:14 33° NNW
Cosmos 1610 Rocket 4.4 09:20:18 60° NNE 09:21:18 71° E 09:27:36 10° SSE
Cosmos 1441 Rocket 4.3 09:26:26 44° SW 09:26:26 44° SW 09:29:35 10° S
SL-16 R/B 2.3 09:20:46 10° SSW 09:26:29 61° ESE 09:26:49 60° E
Cosmos 2227 Rocket 2.5 09:24:52 24° NW 09:28:18 65° WSW 09:34:02 10° SSE
Thor Agena Rocket 4.3 09:30:50 38° SE 09:30:50 38° SE 09:35:09 10° S
Cosmos 1151 Rocket 3.8 09:26:24 10° SSW 09:30:39 46° W 09:30:40 46° W
Cosmos 2184 Rocket 4.3 09:29:09 36° NNW 09:31:50 67° W 09:38:15 10° S
Cosmos 783 Rocket 4.5 09:26:54 10° SSW 09:32:02 73° SE 09:32:02 73° SE
Meteor 1-26 Rocket 4.4 09:28:13 10° SSW 09:33:36 60° W 09:34:21 54° NW
Cosmos 1295 Rocket 4.3 09:34:31 70° ENE 09:34:53 72° E 09:41:12 10° SSE
Cosmos 2263 Rocket 4.3 09:38:43 14° ESE 09:38:43 14° ESE 09:39:51 10° SE
SPOT 3 Rocket 3.6 09:35:36 10° S 09:40:50 76° WSW 09:41:00 75° W
USA 234 3.5 09:40:50 49° NNW 09:41:40 52° NW 09:48:06 10° WSW
OBJECT-B 3.4 09:42:05 10° SSW 09:44:13 20° WSW 09:44:13 20° WSW
Resurs 01 Rocket 2.3 09:41:54 10° S 09:45:38 55° SSW 09:45:38 55° SSW
ARIANE 5 R/B 4.0 09:48:18 10° SSE 09:50:43 32° SSE 09:50:43 32° SSE
Cosmos 2341 Rocket 4.0 09:58:35 72° ESE 09:58:35 72° ESE 10:04:43 10° SSE
Cosmos 489 Rocket 4.4 09:54:35 10° SSW 10:01:02 89° WNW 10:01:04 88° NNW
Terra 4.0 10:00:36 10° SE 10:01:59 17° SE 10:01:59 17° SE
NOSS 3-2 (A) 4.4 09:58:48 10° SSW 10:04:49 35° SE 10:05:48 33° ESE
Spot 2 Rocket 4.3 10:02:05 10° SSE 10:05:40 45° SSE 10:05:40 45° SSE
Cosmos 2218 Rocket 4.5 10:08:53 48° ESE 10:08:53 48° ESE 10:13:53 10° SSE
Cosmos 2297 Rocket 4.0 10:03:43 10° WNW 10:08:33 28° SW 10:13:26 10° S
SL-8 Rocket 4.1 10:21:57 72° SSE 10:21:57 72° SSE 10:27:41 10° S
SPOT 5 4.2 10:16:05 10° SSE 10:19:23 36° SE 10:19:23 36° SE
Lacrosse 5 rocket 3.5 10:18:14 10° SSW 10:20:37 25° S 10:20:37 25° S
SJ 16-02 3.8 10:32:47 17° SSE 10:32:47 17° SSE 10:33:54 10° SSE
SPOT 1/Viking Rocket 4.3 10:30:04 10° S 10:34:08 50° SSW 10:34:08 50° SSW
SeaSat 1 3.8 10:35:07 10° S 10:39:37 35° SW 10:39:54 34° WSW
Cosmos 1943 4.0 10:53:41 10° SSW 10:57:50 49° SSW 10:57:50 49° SSW
Cosmos 2366 rocket 4.4 11:00:46 58° SW 11:00:46 58° SW 11:06:12 10° S
NOSS 3-2 (C) 4.0 10:59:36 10° SSW 11:05:30 50° SSE 11:05:30 50° SSE
ERS-1 Rocket 4.2 11:01:40 10° S 11:05:07 39° SSW 11:05:07 39° SSW
SL-16 R/B 4.2 11:06:01 10° SW 11:08:42 18° W 11:08:42 18° W
CENTAUR R/B 3.1 11:10:18 10° SSW 11:14:43 44° S 11:14:43 44° S
Cosmos 2263 Rocket 3.1 11:20:22 45° SSW 11:20:22 45° SSW 11:24:40 10° SSE
ATLAS 2AS CENTAUR R/B 3.9 11:28:23 28° ESE 11:28:23 28° ESE 11:31:31 10° SE
Terra 3.7 11:38:07 10° S 11:40:53 27° SSW 11:40:53 27° SSW
Lacrosse 4 Rocket 4.0 11:41:57 10° S 11:44:06 19° SSE 11:44:06 19° SSE
USA 238 DEB 4.4 11:44:19 10° SW 11:49:09 45° WSW 11:49:09 45° WSW
USA 238 4.3 11:44:25 10° SW 11:49:16 45° WSW 11:49:16 45° WSW
